Location: Taranto
(40.4760°N, 17.2300°E)
Time: 04:20:33
(UTC+01:00)

ISS - Visible Passes

Search period start: 23 January 2019 00:00
Search period end: 02 February 2019 00:00
Orbit: 404 x 411 km, 51.6° (Epoch: 23 January)

Date Brightness Start Highest point End Pass type
(mag) Time Alt. Az. Time Alt. Az. Time Alt. Az.
23 Jan -3.7 18:37:30 10° WSW 18:40:46 67° NW 18:41:04 62° N visible
24 Jan -3.7 17:46:11 10° SW 17:49:26 64° SE 17:52:03 15° ENE visible
24 Jan -1.0 19:23:35 10° WNW 19:24:46 17° WNW 19:24:46 17° WNW visible
25 Jan -2.4 18:31:43 10° W 18:34:42 31° NNW 18:35:40 26° N visible
26 Jan -3.2 17:40:01 10° WSW 17:43:13 51° NNW 17:46:28 10° NE visible
26 Jan -0.9 19:18:20 10° NW 19:19:13 13° NW 19:19:13 13° NW visible
27 Jan -1.7 18:26:15 10° WNW 18:28:43 19° NNW 18:30:00 16° N visible
28 Jan -2.1 17:34:17 10° W 17:37:07 26° NNW 17:39:59 10° NE visible
28 Jan -0.9 19:13:02 10° NNW 19:13:26 11° NNW 19:13:26 11° NNW visible
29 Jan -1.4 18:20:59 10° NW 18:22:49 14° N 18:24:08 12° NNE visible
30 Jan -0.9 19:07:15 10° NNW 19:07:31 11° NNW 19:07:31 11° NNW visible
31 Jan -1.3 18:15:32 10° NNW 18:16:55 12° N 18:18:11 10° NNE visible
01 Feb -1.1 19:00:50 10° NNW 19:01:34 12° NNW 19:01:34 12° NNW visible
